Roseburg, OR

3:39 AM PDT on May 24, 2017 (GMT -0700)
Roseburg Regional

Weather History for KRBG - March, 2013

Change the Weather History Date:

Friday, March 22, 2013

  Actual Average Record
Temperature  
Mean Temperature 44 °F 49 °F  
Max Temperature 50 °F 59 °F 79 °F (1939)
Min Temperature 37 °F 40 °F 29 °F (1994)
Degree Days  
Heating Degree Days 21 16  
Month to date heating degree days 340 371  
Since 1 July heating degree days 3050 3240  
Cooling Degree Days 0 0  
Month to date cooling degree days 0 0  
Year to date cooling degree days 0 0  
Moisture  
Dew Point 34 °F    
Average Humidity 69    
Maximum Humidity 92    
Minimum Humidity 46    
Precipitation  
Precipitation T in 0.12 in 1.05 in (1938)
Month to date precipitation 1.39 2.36  
Year to date precipitation 4.54 11.40  
Sea Level Pressure  
Sea Level Pressure 30.37 in    
Wind  
Wind Speed 4 mph (NNW)    
Max Wind Speed 14 mph    
Max Gust Speed 18 mph    
Visibility 10 miles    
Events Rain    
T = Trace of Precipitation, MM = Missing Value Source: NWS Daily Summary

Daily Weather History Graph

Daily Weather History Graph

Search for Another Location

Airport or City:

Trip Planner

Search our weather history database for the weather conditions in past years. The results will help you decide how hot, cold, wet, or windy it might be!

Date:

Astronomy

Mar. 22, 2013 Rise Set
Actual Time 7:12 AM PDT 7:28 PM PDT
Civil Twilight 6:44 AM PDT 7:57 PM PDT
Nautical Twilight 6:10 AM PDT 8:30 PM PDT
Astronomical Twilight 5:36 AM PDT 9:04 PM PDT
Moon 2:54 PM PDT (3/22) 4:23 AM PDT (3/22)
Length of Visible Light 13h 13m
Length of Day
12h 16m
Waxing Gibbous, 78% of the Moon is Illuminated
Mar 22
Waxing Gibbous
Mar 27
Full
Apr 2
Last Quarter
Apr 10
New
Apr 18
First Quarter

Hourly Weather History & Observations

Time (PDT) Temp. Windchill Dew Point Humidity Pressure Visibility Wind Dir Wind Speed Gust Speed Precip Events Conditions
12:53 AM 37.9 °F - 33.1 °F 83% 30.38 in 10.0 mi Calm Calm - N/A   Partly Cloudy
1:53 AM 37.9 °F - 34.0 °F 86% 30.37 in 10.0 mi Calm Calm - N/A   Overcast
2:01 AM 37.4 °F - 33.8 °F 87% 30.36 in 10.0 mi Calm Calm - N/A   Overcast
2:22 AM 37.4 °F - 33.8 °F 87% 30.36 in 10.0 mi Calm Calm - N/A   Overcast
2:53 AM 37.0 °F - 34.0 °F 89% 30.37 in 10.0 mi Calm Calm - N/A   Mostly Cloudy
3:53 AM 37.9 °F - 35.1 °F 89% 30.37 in 10.0 mi Calm Calm - N/A   Overcast
4:53 AM 37.9 °F - 35.1 °F 89% 30.36 in 10.0 mi Calm Calm - 0.00 in   Overcast
5:11 AM 37.4 °F - 35.6 °F 93% 30.35 in 10.0 mi Calm Calm - N/A   Overcast
5:53 AM 37.0 °F - 35.1 °F 93% 30.36 in 10.0 mi Calm Calm - N/A   Mostly Cloudy
6:18 AM 37.4 °F - 35.6 °F 93% 30.35 in 10.0 mi Calm Calm - N/A   Mostly Cloudy
6:39 AM 37.4 °F - 35.6 °F 93% 30.35 in 10.0 mi Calm Calm - N/A   Overcast
6:53 AM 37.9 °F - 35.1 °F 89% 30.37 in 10.0 mi Calm Calm - N/A   Overcast
7:53 AM 37.0 °F - 35.1 °F 93% 30.38 in 10.0 mi Calm Calm - 0.00 in   Mostly Cloudy
8:53 AM 39.0 °F - 35.1 °F 86% 30.38 in 10.0 mi Calm Calm - N/A   Mostly Cloudy
9:30 AM 41.0 °F 39.0 °F 35.6 °F 81% 30.37 in 10.0 mi SW 3.5 mph - N/A   Overcast
9:53 AM 41.0 °F 38.0 °F 34.0 °F 76% 30.39 in 10.0 mi WSW 4.6 mph - N/A   Overcast
10:13 AM 41.0 °F 39.0 °F 33.8 °F 76% 30.38 in 10.0 mi WNW 3.5 mph - N/A   Overcast
10:53 AM 43.0 °F 41.3 °F 33.1 °F 68% 30.39 in 10.0 mi Variable 3.5 mph - N/A   Overcast
11:53 AM 45.0 °F 39.7 °F 30.0 °F 56% 30.39 in 10.0 mi North 10.4 mph - 0.00 in Rain Light Rain
12:53 PM 45.0 °F 38.9 °F 28.9 °F 53% 30.39 in 10.0 mi North 12.7 mph - 0.00 in   Overcast
1:53 PM 48.0 °F - 28.9 °F 48% 30.37 in 10.0 mi North 4.6 mph - N/A   Scattered Clouds
2:53 PM 48.9 °F - 30.9 °F 50% 30.35 in 10.0 mi WSW 8.1 mph - N/A   Mostly Cloudy
3:53 PM 48.0 °F - 33.1 °F 56% 30.35 in 10.0 mi Variable 6.9 mph - N/A   Scattered Clouds
4:53 PM 48.0 °F - 28.9 °F 48% 30.35 in 10.0 mi Variable 5.8 mph - N/A   Partly Cloudy
5:53 PM 46.0 °F 41.0 °F 33.1 °F 61% 30.35 in 10.0 mi NW 10.4 mph - N/A   Mostly Cloudy
6:53 PM 45.0 °F 41.2 °F 32.0 °F 60% 30.36 in 10.0 mi NNW 6.9 mph - N/A   Mostly Cloudy
7:53 PM 44.1 °F 42.5 °F 32.0 °F 63% 30.37 in 10.0 mi North 3.5 mph - N/A   Scattered Clouds
8:53 PM 42.1 °F 40.2 °F 33.1 °F 70% 30.38 in 10.0 mi North 3.5 mph - N/A   Clear
9:53 PM 42.1 °F 38.4 °F 35.1 °F 76% 30.38 in 10.0 mi North 5.8 mph - N/A   Overcast
10:53 PM 41.0 °F 38.0 °F 35.1 °F 79% 30.39 in 10.0 mi NNE 4.6 mph - N/A   Overcast
11:53 PM 41.0 °F - 35.1 °F 79% 30.39 in 10.0 mi Calm Calm - N/A   Overcast